Home > Weather > Orange > Past weeks

Flag for USA Past Weather in Orange, California, USA — Yesterday and Last 2 Weeks

Now
67 °F

Overcast.


Feels Like: 67 °F
Forecast: 66 / 82 °F
Wind: 6 mph from South

Location: John Wayne Airport-Orange County Airport

Current Time: Jul 1, 2016 at 3:03:54 AM

Latest Report: Jul 1, 2016 at 1:53 AM


Visibility: 10 mi

Pressure: 29.87 "Hg

Humidity: 81%

Dew Point: 61 °F

Location of OrangeLocation

Past Weather in Orange — Graph

°F

Orange Temperature Yesterday

Maximum temperature yesterday: 75 °F (at 2:53 PM)
Minimum temperature yesterday: 67 °F (at 4:53 AM)
Average temperature yesterday: 70 °F

High & Low Weather Summary for the Past Weeks

 TemperatureHumidityPressure
High95 °F (Jun 20, 2:53 PM)97% (Jun 22, 3:53 AM)30.03 "Hg (Jun 22, 3:53 AM)
Low59 °F (Jun 16, 4:53 AM)23% (Jun 19, 10:53 AM)29.81 "Hg (Jun 19, 5:53 PM)
Average72 °F68%29.91 "Hg
* Reported Jun 16 1:53 AM — Jul 1 1:53 AM, Orange, Weather by CustomWeather, © 2016

Note: Actual official high and low records may vary slightly from our data, if they occured in-between our weather recording intervals... More about our weather records

Advertising

Orange Weather History for the Previous 24 Hours

Scroll right to see more
 ConditionsComfort  
Time TempWeatherWind HumidityBarometerVisibility
1:53 AM
Fri, Jul 1
67 °FOvercast.6 mph81%29.87 "Hg10 mi
12:53 AM67 °FOvercast.5 mph81%29.88 "Hg10 mi
11:53 PM
Thu, Jun 30
67 °FOvercast.7 mph81%29.88 "Hg10 mi
10:53 PM67 °FFog.7 mph81%29.88 "Hg6 mi
9:53 PM67 °FMostly cloudy.10 mph81%29.88 "Hg8 mi
8:53 PM67 °FPassing clouds.9 mph81%29.85 "Hg9 mi
7:53 PM68 °FPassing clouds.12 mph78%29.83 "Hg10 mi
6:53 PM69 °FPassing clouds.10 mph76%29.82 "Hg10 mi
5:53 PM71 °FPassing clouds.9 mph73%29.81 "Hg10 mi
4:53 PM72 °FPassing clouds.10 mph71%29.82 "Hg10 mi
3:53 PM74 °FScattered clouds.12 mph67%29.84 "Hg10 mi
2:53 PM75 °FScattered clouds.14 mph64%29.86 "Hg10 mi
1:53 PM74 °FPassing clouds.12 mph67%29.87 "Hg10 mi
12:53 PM74 °FPassing clouds.13 mph67%29.88 "Hg10 mi
11:53 AM74 °FPassing clouds.7 mph67%29.87 "Hg10 mi
10:53 AM73 °FPassing clouds.9 mph69%29.89 "Hg10 mi
9:53 AM72 °FPassing clouds.8 mph71%29.88 "Hg10 mi
8:53 AM70 °FOvercast.3 mph76%29.87 "Hg10 mi
7:53 AM69 °FOvercast.5 mph79%29.88 "Hg10 mi
6:53 AM68 °FOvercast.6 mph78%29.86 "Hg10 mi
5:53 AM67 °FOvercast.6 mph81%29.85 "Hg10 mi
4:53 AM67 °FOvercast.3 mph81%29.84 "Hg10 mi
3:53 AM68 °FOvercast.6 mph78%29.84 "Hg10 mi
Weather by CustomWeather, © 2016

See weather overviewHow to use our weather pages